This is the latest recevied weather packets stored in our database for station/object WA2TQI. If no packets are shown the sender has not sent any weather packets the latest 10 day(s).
| Time | Temp. | Humidity | Pressure | Rain* | Wind** | Luminosity | Snow |
|---|---|---|---|---|---|---|---|
| 1778169222 | 15° C | 62% | 1012.1 hPa | 0 mm | - | - | - |
| 1778168919 | 15.56° C | 61% | 1012 hPa | 0 mm | - | - | - |
| 1778168617 | 15.56° C | 62% | 1012.2 hPa | 0 mm | - | - | - |
| 1778168313 | 15.56° C | 61% | 1012.3 hPa | 0 mm | - | - | - |
| 1778168010 | 15.56° C | 61% | 1012.3 hPa | 0 mm | - | - | - |
| 1778167707 | 15° C | 63% | 1012.6 hPa | 0 mm | - | - | - |
| 1778167403 | 15° C | 66% | 1012.6 hPa | 0 mm | - | - | - |
| 1778167099 | 14.44° C | 67% | 1012.6 hPa | 0 mm | - | - | - |
| 1778166795 | 15° C | 63% | 1012.7 hPa | 0 mm | - | - | - |
| 1778166492 | 15.56° C | 66% | 1013 hPa | 0 mm | - | - | - |
| 1778166189 | 14.44° C | 68% | 1013 hPa | 0 mm | - | - | - |
| 1778165885 | 14.44° C | 70% | 1012.9 hPa | 0 mm | - | - | - |
| 1778165581 | 13.89° C | 70% | 1012.9 hPa | 0 mm | - | - | - |
| 1778165279 | 14.44° C | 70% | 1012.9 hPa | 0 mm | - | - | - |
| 1778164976 | 14.44° C | 73% | 1012.8 hPa | 0 mm | - | - | - |
| 1778164672 | 13.89° C | 75% | 1012.9 hPa | 0 mm | - | - | - |
| 1778164370 | 13.33° C | 76% | 1013.3 hPa | 0 mm | - | - | - |
| 1778164066 | 13.33° C | 77% | 1013.4 hPa | 0 mm | - | - | - |
| 1778163762 | 12.78° C | 78% | 1013.3 hPa | 0 mm | - | - | - |
| 1778163459 | 12.78° C | 77% | 1013 hPa | 0 mm | - | - | - |
| 1778163156 | 13.33° C | 76% | 1013.1 hPa | 0 mm | - | - | - |
| 1778162852 | 12.78° C | 77% | 1013.1 hPa | 0 mm | - | - | - |
| 1778162550 | 12.78° C | 78% | 1013.2 hPa | 0 mm | - | - | - |
| 1778162246 | 12.78° C | 81% | 1013.3 hPa | 0 mm | - | - | - |
| 1778161944 | 12.78° C | 82% | 1013.2 hPa | 0 mm | - | - | - |
* Rain latest hour (hover to see other rain measurements)
** Current wind speed in m/s (hover to see current wind gust speed)